EN

Hourly Weather Ladyzhicy

Today, 4 August, Wednesday

Time Temperature Precipitation Wind Pressure Humidity
00:00 +13°C° 0 mm 2 mps 744 mmHg 90%
01:00 +13°C° 0 mm 2 mps 745 mmHg 92%
02:00 +13°C° 0 mm 2 mps 745 mmHg 93%
03:00 +13°C° 0 mm 2 mps 745 mmHg 93%
04:00 +13°C° 0 mm 2 mps 745 mmHg 93%
05:00 +13°C° 0 mm 2 mps 745 mmHg 93%
06:00 +14°C° 0 mm 2 mps 746 mmHg 85%
07:00 +16°C° 0 mm 2 mps 746 mmHg 76%
08:00 +18°C° 0 mm 2 mps 746 mmHg 67%
09:00 +20°C° 0 mm 3 mps 746 mmHg 60%
10:00 +21°C° 0 mm 3 mps 746 mmHg 53%
11:00 +22°C° 0 mm 3 mps 746 mmHg 45%
12:00 +22°C° 0 mm 3 mps 746 mmHg 46%
13:00 +22°C° 0 mm 3 mps 746 mmHg 47%
14:00 +22°C° 0 mm 4 mps 746 mmHg 48%
15:00 +22°C° 0 mm 3 mps 746 mmHg 50%
16:00 +21°C° 0 mm 2 mps 746 mmHg 52%
17:00 +22°C° 0 mm 1 mps 746 mmHg 55%
18:00 +20°C° 0 mm 1 mps 746 mmHg 61%
19:00 +19°C° 0 mm 1 mps 746 mmHg 67%
20:00 +15°C° 0 mm 0 mps 746 mmHg 73%
21:00 +15°C° 0 mm 1 mps 746 mmHg 76%
22:00 +15°C° 0 mm 1 mps 746 mmHg 79%
23:00 +14°C° 0 mm 1 mps 746 mmHg 81%

Tomorrow, 5 August, Thursday

Time Temperature Precipitation Wind Pressure Humidity
00:00 +14°C° 0 mm 1 mps 746 mmHg 81%
01:00 +14°C° 0 mm 2 mps 746 mmHg 81%
02:00 +14°C° 0 mm 2 mps 746 mmHg 81%
03:00 +14°C° 0.6 mm 1 mps 746 mmHg 85%
04:00 +14°C° 0.6 mm 1 mps 746 mmHg 90%
05:00 +14°C° 0.6 mm 1 mps 746 mmHg 94%
06:00 +14°C° 1.7 mm 2 mps 746 mmHg 95%
07:00 +14°C° 1.7 mm 2 mps 745 mmHg 96%
08:00 +13°C° 1.7 mm 3 mps 745 mmHg 97%
09:00 +14°C° 0.2 mm 4 mps 745 mmHg 93%
10:00 +15°C° 0.2 mm 4 mps 745 mmHg 88%
11:00 +17°C° 0.2 mm 4 mps 745 mmHg 84%
12:00 +18°C° 0.2 mm 4 mps 744 mmHg 82%
13:00 +19°C° 0.2 mm 3 mps 744 mmHg 79%
14:00 +20°C° 0.2 mm 2 mps 744 mmHg 77%
15:00 +20°C° 0.8 mm 2 mps 744 mmHg 79%
16:00 +19°C° 0.8 mm 2 mps 743 mmHg 82%
17:00 +19°C° 0.8 mm 2 mps 743 mmHg 85%
18:00 +18°C° 0.5 mm 2 mps 743 mmHg 88%
19:00 +17°C° 0.5 mm 2 mps 743 mmHg 92%
20:00 +16°C° 0.5 mm 2 mps 743 mmHg 95%
21:00 +16°C° 0.1 mm 2 mps 743 mmHg 96%
22:00 +16°C° 0.1 mm 2 mps 743 mmHg 96%
23:00 +16°C° 0.1 mm 2 mps 742 mmHg 97%

Day after tomorrow, 6 August, Friday

Time Temperature Precipitation Wind Pressure Humidity
00:00 +15°C° 0 mm 2 mps 742 mmHg 98%
01:00 +15°C° 0 mm 2 mps 742 mmHg 98%
02:00 +15°C° 0 mm 2 mps 742 mmHg 99%
03:00 +14°C° 0 mm 3 mps 742 mmHg 98%
04:00 +16°C° 0 mm 3 mps 742 mmHg 98%
05:00 +16°C° 0 mm 3 mps 741 mmHg 98%
06:00 +15°C° 1.2 mm 4 mps 741 mmHg 98%
07:00 +15°C° 1.2 mm 4 mps 741 mmHg 98%
08:00 +15°C° 1.2 mm 4 mps 740 mmHg 98%
09:00 +15°C° 2 mm 5 mps 740 mmHg 97%
10:00 +16°C° 2 mm 5 mps 740 mmHg 97%
11:00 +16°C° 2 mm 5 mps 740 mmHg 96%
12:00 +16°C° 0.2 mm 5 mps 740 mmHg 95%
13:00 +17°C° 0.2 mm 5 mps 740 mmHg 95%
14:00 +17°C° 0.2 mm 5 mps 740 mmHg 95%
15:00 +17°C° 1 mm 5 mps 740 mmHg 95%
16:00 +19°C° 1 mm 5 mps 739 mmHg 95%
17:00 +19°C° 1 mm 5 mps 739 mmHg 96%
18:00 +19°C° 1.4 mm 4 mps 739 mmHg 96%
19:00 +19°C° 1.4 mm 4 mps 739 mmHg 96%
20:00 +19°C° 1.4 mm 4 mps 739 mmHg 96%
21:00 +19°C° 0.4 mm 4 mps 739 mmHg 97%
22:00 +18°C° 0.4 mm 3 mps 739 mmHg 97%
23:00 +18°C° 0.4 mm 3 mps 739 mmHg 97%

7 August, Saturday

Time Temperature Precipitation Wind Pressure Humidity
00:00 +18°C° 0.3 mm 3 mps 739 mmHg 98%
01:00 +18°C° 0.3 mm 3 mps 739 mmHg 98%
02:00 +18°C° 0.3 mm 3 mps 739 mmHg 98%
03:00 +18°C° 0 mm 3 mps 739 mmHg 98%
04:00 +17°C° 0 mm 3 mps 739 mmHg 98%
05:00 +17°C° 0 mm 2 mps 739 mmHg 98%
06:00 +18°C° 0.2 mm 2 mps 740 mmHg 97%
07:00 +19°C° 0.2 mm 2 mps 740 mmHg 95%
08:00 +20°C° 0.2 mm 2 mps 740 mmHg 93%
09:00 +20°C° 0.1 mm 2 mps 740 mmHg 92%
10:00 +21°C° 0.1 mm 2 mps 740 mmHg 90%
11:00 +22°C° 0.1 mm 1 mps 740 mmHg 89%
12:00 +23°C° 0.7 mm 2 mps 741 mmHg 88%
13:00 +23°C° 0.7 mm 2 mps 741 mmHg 88%
14:00 +23°C° 0.7 mm 2 mps 741 mmHg 88%
15:00 +23°C° 0.4 mm 2 mps 741 mmHg 88%
16:00 +21°C° 0.4 mm 2 mps 741 mmHg 89%
17:00 +21°C° 0.4 mm 2 mps 741 mmHg 89%
18:00 +20°C° 0.4 mm 2 mps 741 mmHg 91%
19:00 +19°C° 0.4 mm 2 mps 741 mmHg 94%
20:00 +18°C° 0.4 mm 2 mps 741 mmHg 96%
21:00 +17°C° 0 mm 2 mps 741 mmHg 96%
22:00 +17°C° 0 mm 2 mps 742 mmHg 96%
23:00 +16°C° 0 mm 2 mps 742 mmHg 95%

8 August, Sunday

Time Temperature Precipitation Wind Pressure Humidity
00:00 +16°C° 0 mm 2 mps 742 mmHg 96%
01:00 +15°C° 0 mm 2 mps 742 mmHg 96%
02:00 +15°C° 0 mm 2 mps 742 mmHg 97%
03:00 +14°C° 0 mm 2 mps 743 mmHg 97%
04:00 +14°C° 0 mm 2 mps 743 mmHg 97%
05:00 +13°C° 0 mm 2 mps 743 mmHg 97%
06:00 +13°C° 0 mm 3 mps 743 mmHg 93%
07:00 +14°C° 0 mm 3 mps 743 mmHg 88%
08:00 +16°C° 0 mm 3 mps 743 mmHg 84%
09:00 +18°C° 0 mm 3 mps 743 mmHg 75%
10:00 +19°C° 0 mm 3 mps 744 mmHg 67%
11:00 +21°C° 0 mm 3 mps 744 mmHg 59%
12:00 +22°C° 0 mm 3 mps 744 mmHg 56%
13:00 +22°C° 0 mm 3 mps 744 mmHg 53%
14:00 +24°C° 0 mm 3 mps 744 mmHg 50%
15:00 +24°C° 0 mm 3 mps 744 mmHg 53%
16:00 +24°C° 0 mm 3 mps 744 mmHg 56%
17:00 +24°C° 0 mm 3 mps 744 mmHg 59%
18:00 +21°C° 0 mm 2 mps 745 mmHg 65%
19:00 +19°C° 0 mm 2 mps 745 mmHg 71%
20:00 +17°C° 0 mm 2 mps 745 mmHg 77%
21:00 +17°C° 0 mm 2 mps 745 mmHg 81%
22:00 +16°C° 0 mm 2 mps 746 mmHg 86%
23:00 +15°C° 0 mm 2 mps 746 mmHg 90%

9 August, Monday

Time Temperature Precipitation Wind Pressure Humidity
00:00 +15°C° 0 mm 2 mps 746 mmHg 91%
01:00 +15°C° 0 mm 2 mps 746 mmHg 92%
02:00 +14°C° 0 mm 2 mps 746 mmHg 93%
03:00 +14°C° 0 mm 2 mps 746 mmHg 92%
04:00 +15°C° 0 mm 2 mps 747 mmHg 91%
05:00 +15°C° 0 mm 2 mps 747 mmHg 91%
06:00 +17°C° 0 mm 2 mps 747 mmHg 84%
07:00 +18°C° 0 mm 2 mps 747 mmHg 78%
08:00 +20°C° 0 mm 2 mps 747 mmHg 72%
09:00 +21°C° 0 mm 2 mps 747 mmHg 67%
10:00 +24°C° 0 mm 2 mps 747 mmHg 61%
11:00 +25°C° 0 mm 2 mps 748 mmHg 56%
12:00 +26°C° 0 mm 2 mps 747 mmHg 53%
13:00 +26°C° 0 mm 2 mps 747 mmHg 51%
14:00 +27°C° 0 mm 2 mps 747 mmHg 49%
15:00 +27°C° 0 mm 2 mps 747 mmHg 50%
16:00 +27°C° 0 mm 1 mps 747 mmHg 52%
17:00 +27°C° 0 mm 1 mps 747 mmHg 53%
18:00 +25°C° 0 mm 1 mps 747 mmHg 59%
19:00 +23°C° 0 mm 1 mps 747 mmHg 66%
20:00 +21°C° 0 mm 1 mps 747 mmHg 73%
21:00 +20°C° 0 mm 1 mps 747 mmHg 76%
22:00 +19°C° 0 mm 2 mps 747 mmHg 78%
23:00 +18°C° 0 mm 2 mps 747 mmHg 81%
Show more